Weather History for KDKR - July, 2013

Change the Weather History Date:

Friday, July 26, 2013

  Actual Average (KLFK) Record (KLFK)
Temperature  
Mean Temperature 85 °F 83 °F  
Max Temperature 93 °F 94 °F 104 °F (1925)
Min Temperature 77 °F 72 °F 64 °F (1920)
Degree Days  
Heating Degree Days 0 0  
Month to date heating degree days 0  
Since 1 June heating degree days 0  
Since 1 July heating degree days 0  
Cooling Degree Days 20 18  
Month to date cooling degree days 459  
Year to date cooling degree days 1380  
Since 1 June cooling degree days 911  
Growing Degree Days 35 (Base 50)    
Moisture  
Dew Point 72 °F    
Average Humidity 66    
Maximum Humidity 94    
Minimum Humidity 41    
Precipitation  
Precipitation 0.00 in 0.08 in 2.27 in (1951)
Month to date precipitation 2.61  
Year to date precipitation 26.81  
Snow  
Snow 0.00 in - - ()
Month to date snowfall  
Since 1 June snowfall  
Since 1 July snowfall  
Snow Depth -    
Sea Level Pressure  
Sea Level Pressure 30.01 in    
Wind  
Wind Speed 6 mph (South)    
Max Wind Speed 13 mph    
Max Gust Speed 18 mph    
Visibility 8 miles    
Events      
T = Trace of Precipitation, MM = Missing Value Source: NWS Daily Summary

Daily Weather History Graph

Daily Weather History Graph

Search for Another Location

Airport or City:

Trip Planner

Search our weather history database for the weather conditions in past years. The results will help you decide how hot, cold, wet, or windy it might be!

Date:

Astronomy

Jul. 26, 2013 Rise Set
Actual Time 6:34 AM CDT 8:21 PM CDT
Civil Twilight 6:07 AM CDT 8:47 PM CDT
Nautical Twilight 5:35 AM CDT 9:20 PM CDT
Astronomical Twilight 5:01 AM CDT 9:54 PM CDT
Moon 10:59 PM CDT (7/26) 10:50 AM CDT (7/26)
Length of Visible Light 14h 40m
Length of Day
13h 46m
Waning Gibbous, 80% of the Moon is Illuminated
Jul 26
Waning Gibbous
Jul 29
Last Quarter
Aug 6
New
Aug 14
First Quarter
Aug 20
Full

Hourly Weather History & Observations

Time (CDT) Temp. Heat Index Dew Point Humidity Pressure Visibility Wind Dir Wind Speed Gust Speed Precip Events Conditions
12:15 AM 82.4 °F 88.2 °F 73.4 °F 74% 30.04 in 8.0 mi SE 4.6 mph - N/A   Clear
12:35 AM 82.4 °F 88.2 °F 73.4 °F 74% 30.04 in 9.0 mi SE 4.6 mph - N/A   Clear
12:55 AM 82.4 °F 88.2 °F 73.4 °F 74% 30.04 in 10.0 mi SE 3.5 mph - N/A   Clear
1:15 AM 80.6 °F 85.4 °F 73.4 °F 79% 30.04 in 8.0 mi SE 4.6 mph - N/A   Clear
1:35 AM 80.6 °F 85.4 °F 73.4 °F 79% 30.04 in 8.0 mi SSE 5.8 mph - N/A   Clear
1:55 AM 80.6 °F 85.4 °F 73.4 °F 79% 30.04 in 9.0 mi SSE 4.6 mph - N/A   Clear
2:15 AM 80.6 °F 85.4 °F 73.4 °F 79% 30.04 in 8.0 mi SSE 4.6 mph - N/A   Clear
2:35 AM 80.6 °F 85.4 °F 73.4 °F 79% 30.03 in 8.0 mi South 5.8 mph - N/A   Clear
2:55 AM 78.8 °F - 73.4 °F 83% 30.03 in 8.0 mi South 4.6 mph - N/A   Clear
3:15 AM 78.8 °F - 73.4 °F 83% 30.03 in 9.0 mi SSE 3.5 mph - N/A   Clear
3:35 AM 78.8 °F - 73.4 °F 83% 30.03 in 8.0 mi South 3.5 mph - N/A   Clear
3:55 AM 78.8 °F - 73.4 °F 83% 30.04 in 8.0 mi SSE 3.5 mph - N/A   Clear
4:15 AM 78.8 °F - 73.4 °F 83% 30.05 in 8.0 mi Calm Calm - N/A   Partly Cloudy
4:35 AM 78.8 °F - 73.4 °F 83% 30.04 in 8.0 mi South 4.6 mph - N/A   Clear
4:55 AM 78.8 °F - 73.4 °F 83% 30.04 in 9.0 mi South 5.8 mph - N/A   Clear
5:15 AM 78.8 °F - 73.4 °F 83% 30.03 in 8.0 mi South 4.6 mph - N/A   Clear
5:35 AM 77.0 °F - 73.4 °F 89% 30.03 in 9.0 mi South 5.8 mph - N/A   Clear
5:55 AM 77.0 °F - 73.4 °F 89% 30.04 in 8.0 mi South 6.9 mph - N/A   Scattered Clouds
6:15 AM 77.0 °F - 73.4 °F 89% 30.05 in 7.0 mi South 5.8 mph - N/A   Mostly Cloudy
6:35 AM 77.0 °F - 73.4 °F 89% 30.07 in 7.0 mi SSW 3.5 mph - N/A   Mostly Cloudy
6:55 AM 77.0 °F - 73.4 °F 89% 30.07 in 5.0 mi SSW 3.5 mph - N/A   Mostly Cloudy
7:15 AM 77.0 °F - 75.2 °F 94% 30.05 in 5.0 mi South 5.8 mph - N/A   Mostly Cloudy
7:35 AM 78.8 °F - 75.2 °F 89% 30.05 in 5.0 mi South 6.9 mph - N/A   Scattered Clouds
7:55 AM 78.8 °F - 75.2 °F 89% 30.07 in 6.0 mi SSW 4.6 mph - N/A   Partly Cloudy
8:15 AM 80.6 °F 86.2 °F 75.2 °F 84% 30.08 in 6.0 mi SSW 5.8 mph - N/A   Haze
8:35 AM 80.6 °F 86.2 °F 75.2 °F 84% 30.07 in 7.0 mi SSW 6.9 mph - N/A   Mostly Cloudy
8:55 AM 82.4 °F 88.2 °F 73.4 °F 74% 30.07 in 7.0 mi SSW 8.1 mph - N/A   Mostly Cloudy
9:15 AM 82.4 °F 89.5 °F 75.2 °F 79% 30.07 in 7.0 mi South 9.2 mph - N/A   Scattered Clouds
9:35 AM 84.2 °F 90.9 °F 73.4 °F 70% 30.07 in 8.0 mi SSW 9.2 mph - N/A   Scattered Clouds
9:55 AM 84.2 °F 90.9 °F 73.4 °F 70% 30.07 in 7.0 mi SSW 6.9 mph - N/A   Partly Cloudy
10:15 AM 84.2 °F 90.9 °F 73.4 °F 70% 30.07 in 7.0 mi SW 11.5 mph - N/A   Scattered Clouds
10:35 AM 86.0 °F 93.4 °F 73.4 °F 66% 30.08 in 7.0 mi SSW 8.1 mph - N/A   Partly Cloudy
10:55 AM 86.0 °F 91.8 °F 71.6 °F 62% 30.08 in 8.0 mi SSW 10.4 mph - N/A   Partly Cloudy
11:15 AM 89.6 °F 96.2 °F 71.6 °F 55% 30.08 in 8.0 mi SSW 9.2 mph - N/A   Partly Cloudy
11:35 AM 87.8 °F 93.8 °F 71.6 °F 58% 30.08 in 9.0 mi SW 6.9 mph - N/A   Partly Cloudy
11:55 AM 87.8 °F 93.8 °F 71.6 °F 58% 30.06 in 9.0 mi WSW 10.4 mph - N/A   Partly Cloudy
12:15 PM 87.8 °F 93.8 °F 71.6 °F 58% 30.05 in 10.0 mi South 11.5 mph - N/A   Clear
12:35 PM 87.8 °F 93.8 °F 71.6 °F 58% 30.04 in 9.0 mi SSW 8.1 mph - N/A   Clear
12:55 PM 87.8 °F 93.8 °F 71.6 °F 58% 30.04 in 9.0 mi South 12.7 mph - N/A   Clear
1:15 PM 89.6 °F 96.2 °F 71.6 °F 55% 30.03 in 9.0 mi South 9.2 mph - N/A   Clear
1:35 PM 89.6 °F 96.2 °F 71.6 °F 55% 30.02 in 10.0 mi SSW 11.5 mph - N/A   Clear
1:55 PM 89.6 °F 96.2 °F 71.6 °F 55% 30.02 in 8.0 mi South 12.7 mph - N/A   Clear
2:15 PM 91.4 °F 98.4 °F 71.6 °F 52% 30.01 in 9.0 mi SSW 9.2 mph 16.1 mph N/A   Clear
2:35 PM 91.4 °F 96.8 °F 69.8 °F 49% 30.00 in 9.0 mi SSW 11.5 mph 18.4 mph N/A   Clear
2:55 PM 91.4 °F 96.8 °F 69.8 °F 49% 30.00 in 10.0 mi South 11.5 mph - N/A   Clear
3:15 PM 91.4 °F 96.8 °F 69.8 °F 49% 29.99 in 8.0 mi SSW 6.9 mph - N/A   Clear
3:35 PM 91.4 °F 96.8 °F 69.8 °F 49% 29.98 in 9.0 mi South 8.1 mph - N/A   Unknown
3:55 PM 91.4 °F 96.8 °F 69.8 °F 49% 29.98 in 9.0 mi South 6.9 mph - N/A   Unknown
4:15 PM 91.4 °F 96.8 °F 69.8 °F 49% 29.97 in 9.0 mi South 6.9 mph - N/A   Clear
4:35 PM 91.4 °F 95.4 °F 68.0 °F 46% 29.96 in 9.0 mi SSW 6.9 mph - N/A   Clear
4:55 PM 93.2 °F 97.7 °F 68.0 °F 44% 29.95 in 9.0 mi South 9.2 mph - N/A   Clear
5:15 PM 93.2 °F 97.7 °F 68.0 °F 44% 29.95 in 9.0 mi South 9.2 mph - N/A   Clear
5:35 PM 93.2 °F 96.2 °F 66.2 °F 41% 29.95 in 9.0 mi South 9.2 mph - N/A   Clear
5:55 PM 91.4 °F 94.0 °F 66.2 °F 43% 29.94 in 9.0 mi South 8.1 mph - N/A   Clear
6:15 PM 93.2 °F 97.7 °F 68.0 °F 44% 29.93 in 8.0 mi South 9.2 mph - N/A   Clear
6:35 PM 91.4 °F 94.0 °F 66.2 °F 43% 29.92 in 7.0 mi South 9.2 mph - N/A   Clear
6:55 PM 91.4 °F 95.4 °F 68.0 °F 46% 29.91 in 9.0 mi South 8.1 mph - N/A   Clear
7:15 PM 91.4 °F 95.4 °F 68.0 °F 46% 29.91 in 9.0 mi SSE 8.1 mph - N/A   Clear
7:35 PM 89.6 °F 93.4 °F 68.0 °F 49% 29.91 in 9.0 mi SSE 3.5 mph - N/A   Clear
7:55 PM 89.6 °F 93.4 °F 68.0 °F 49% 29.93 in 10.0 mi SSE 3.5 mph - N/A   Clear
8:15 PM 87.8 °F 92.6 °F 69.8 °F 55% 29.91 in 9.0 mi SSE 5.8 mph - N/A   Clear
8:35 PM 87.8 °F 92.6 °F 69.8 °F 55% 29.91 in 10.0 mi SSE 4.6 mph - N/A   Clear
8:55 PM 86.0 °F 90.4 °F 69.8 °F 58% 29.91 in 10.0 mi SE 4.6 mph - N/A   Clear
9:15 PM 86.0 °F 90.4 °F 69.8 °F 58% 29.93 in 10.0 mi South 5.8 mph - N/A   Clear
9:35 PM 86.0 °F 90.4 °F 69.8 °F 58% 29.92 in 10.0 mi South 8.1 mph - N/A   Clear
9:55 PM 86.0 °F 89.4 °F 68.0 °F 55% 29.90 in 10.0 mi South 10.4 mph - N/A   Clear
10:15 PM 86.0 °F 89.4 °F 68.0 °F 55% 29.92 in 10.0 mi SSE 6.9 mph - N/A   Clear
10:35 PM 84.2 °F 88.4 °F 69.8 °F 62% 29.92 in 10.0 mi South 6.9 mph - N/A   Clear
10:55 PM 84.2 °F 89.6 °F 71.6 °F 66% 29.93 in 10.0 mi South 6.9 mph - N/A   Clear
11:15 PM 84.2 °F 90.9 °F 73.4 °F 70% 29.94 in 10.0 mi SSW 5.8 mph - N/A   Clear
11:35 PM 82.4 °F 88.2 °F 73.4 °F 74% 29.94 in 10.0 mi SSW 5.8 mph - N/A   Clear
11:55 PM 82.4 °F 88.2 °F 73.4 °F 74% 29.94 in 10.0 mi SW 8.1 mph - N/A   Clear